Terug naar catalogus

STARLINK-1647

ActiefCommunicatieVLEO
NORAD 47978·PAYLOAD·🇺🇸 United States

Gelanceerd Mar 24, 2021 vanaf Cape Canaveral Space Force Station

Loading…

Volgende Passages (komende 24 uur)

TLE

VersSource: CelesTrak SupGP

Epoch: Sep 15, 2026, 01:53 UTC

1 47978C 21024B   26258.07895833  .00000044  00000+0  14255-5 0  2587
2 47978  53.1585 171.0127 0001423  90.9495 335.5267 15.31697406    13

Volg STARLINK-1647 in realtime met AllMySat

Download on the App Store